Home > Weather > Escondido > Past weeks

Flag for USA Weather for the Past 2 Weeks in Escondido, California, USA

Now
52 °F

Light rain. Fog.


Feels Like: 51 °F
Forecast: 54 / 64 °F
Wind: 5 mph from Southeast

Location: Ramona Airport

Current Time: May 6, 2016 at 8:33:11 AM

Latest Report: May 6, 2016 at 7:53 AM


Visibility: 4 mi

Pressure: 29.87 "Hg

Humidity: 93%

Dew Point: 50 °F

Location of EscondidoLocation

Historic Weather in Escondido — Graph

°F

Escondido Temperature Yesterday

Maximum temperature yesterday: 62 °F (at 11:53 AM)
Minimum temperature yesterday: 54 °F (at 12:53 AM)
Average temperature yesterday: 57 °F

High & Low Weather Summary for the Past Weeks

 TemperatureHumidityPressure
High81 °F (May 3, 12:53 PM)100% (May 4, 2:53 AM)30.03 "Hg (May 4, 2:53 AM)
Low38 °F (Apr 27, 2:53 AM)19% (Apr 21, 2:53 PM)29.75 "Hg (Apr 30, 3:53 PM)
Average57 °F71%29.91 "Hg
* Reported Apr 21 7:53 AM — May 6 7:02 AM, Escondido, Weather by CustomWeather, © 2016

Note: Actual official high and low records may vary slightly from our data, if they occured in-between our weather recording intervals... More about our weather records

Advertising

Escondido Weather History for the Previous 24 Hours

Scroll right to see more
 ConditionsComfort  
Time TempWeatherWind HumidityBarometerVisibility
7:02 AM
Fri, May 6
53 °FLight rain. Fog.3 mph93%29.87 "Hg5 mi
6:53 AM53 °FLight rain. Fog.3 mph93%29.85 "Hg6 mi
6:00 AM52 °FLight rain. Mostly cloudy.3 mph97%29.85 "Hg7 mi
4:53 AM53 °FLight rain. Fog.No wind93%29.82 "Hg4 mi
3:53 AM52 °FMostly cloudy.No wind93%29.83 "Hg10 mi
2:59 AM52 °FFog.3 mph93%29.84 "Hg5 mi
2:04 AM53 °FMostly cloudy.3 mph89%29.85 "Hg10 mi
1:53 AM53 °FMostly cloudy.5 mph89%29.83 "Hg10 mi
12:53 AM54 °FLight rain. Mostly cloudy.No wind86%29.86 "Hg9 mi
11:53 PM
Thu, May 5
55 °FMostly cloudy.No wind80%29.87 "Hg10 mi
10:53 PM55 °FMostly cloudy.5 mph77%29.88 "Hg10 mi
9:53 PM55 °FOvercast.7 mph77%29.88 "Hg10 mi
8:53 PM56 °FMostly cloudy.9 mph75%29.86 "Hg10 mi
7:53 PM57 °FMore clouds than sun.9 mph67%29.84 "Hg10 mi
6:53 PM59 °FOvercast.3 mph58%29.84 "Hg10 mi
5:53 PM59 °FMostly cloudy.6 mph60%29.85 "Hg10 mi
4:53 PM59 °FOvercast.9 mph62%29.88 "Hg10 mi
3:53 PM58 °FOvercast.8 mph70%29.90 "Hg10 mi
3:00 PM58 °FOvercast.7 mph78%29.94 "Hg10 mi
1:53 PM59 °FOvercast.10 mph75%29.92 "Hg10 mi
12:53 PM60 °FOvercast.6 mph65%29.91 "Hg10 mi
11:53 AM62 °FMostly cloudy.7 mph56%29.91 "Hg10 mi
10:53 AM60 °FMore clouds than sun.6 mph65%29.91 "Hg10 mi
9:53 AM58 °FMore clouds than sun.3 mph70%29.91 "Hg10 mi
9:04 AM58 °FMostly cloudy.5 mph70%29.93 "Hg10 mi
8:53 AM57 °FMostly cloudy.No wind72%29.90 "Hg10 mi
Weather by CustomWeather, © 2016

See weather overviewHow to use our weather pages